Location: Unspecified
(51.5147°N, 7.4673°E)
Time: 08:58:31
(UTC+01:00)

Vanguard 1 Rocket - Pass Details

Date: 24 February 2026
Orbit: 653 x 4214 km, 34.3° (Epoch: 7 March)

Event Time Altitude Azimuth Distance (km) Brightness Sun altitude
Rises 12:56:43 0° 225° (SW) 3,810 11.3 29.1°
Reaches altitude 10° 12:59:22 10° 212° (SSW) 3,175 11.3 29.0°
Maximum altitude 13:05:56 27° 157° (SSE) 2,886 11.4 28.9°
Drops below altitude 10° 13:16:33 10° 108° (ESE) 5,308 11.5 28.7°
Sets 13:22:46 0° 99° (E) 6,976 11.9 28.5°
